This is the latest recevied weather packets stored in our database for station/object DL8GAK-13. If no packets are shown the sender has not sent any weather packets the latest 10 day(s).
| Time | Temp. | Humidity | Pressure | Rain* | Wind** | Luminosity | Snow |
|---|---|---|---|---|---|---|---|
| 1788536802 | 30° C | 49% | 1023.8 hPa | - | - | - | - |
| 1788536201 | 30.56° C | 49% | 1023.9 hPa | - | - | - | - |
| 1788535600 | 31.67° C | 50% | 1024 hPa | - | - | - | - |
| 1788534999 | 31.67° C | 50% | 1024 hPa | - | - | - | - |
| 1788534399 | 31.67° C | 51% | 1024.2 hPa | - | - | - | - |
| 1788533798 | 31.67° C | 51% | 1024.4 hPa | - | - | - | - |
| 1788533197 | 31.11° C | 50% | 1024.5 hPa | - | - | - | - |
| 1788532596 | 30.56° C | 49% | 1024.4 hPa | - | - | - | - |
| 1788531995 | 30° C | 49% | 1024.5 hPa | - | - | - | - |
| 1788531394 | 29.44° C | 49% | 1024.6 hPa | - | - | - | - |
| 1788530793 | 29.44° C | 49% | 1024.7 hPa | - | - | - | - |
| 1788530192 | 29.44° C | 50% | 1024.8 hPa | - | - | - | - |
| 1788529592 | 28.89° C | 50% | 1024.9 hPa | - | - | - | - |
| 1788528991 | 28.89° C | 50% | 1025 hPa | - | - | - | - |
| 1788528390 | 28.89° C | 50% | 1025.1 hPa | - | - | - | - |
| 1788527789 | 28.89° C | 50% | 1025.2 hPa | - | - | - | - |
| 1788527188 | 28.89° C | 51% | 1025.3 hPa | - | - | - | - |
| 1788526587 | 28.89° C | 50% | 1025.2 hPa | - | - | - | - |
| 1788525986 | 28.89° C | 50% | 1025.4 hPa | - | - | - | - |
| 1788525386 | 28.89° C | 50% | 1025.6 hPa | - | - | - | - |
| 1788524785 | 28.89° C | 50% | 1025.7 hPa | - | - | - | - |
| 1788524184 | 28.89° C | 50% | 1025.9 hPa | - | - | - | - |
| 1788523606 | 29.44° C | 50% | 1026 hPa | - | - | - | - |
| 1788522982 | 29.44° C | 51% | 1026.1 hPa | - | - | - | - |
| 1788522381 | 28.89° C | 51% | 1026.2 hPa | - | - | - | - |
* Rain since midnight (hover to see other rain measurements)
** Current wind speed in m/s (hover to see current wind gust speed)